Home > Weather > Feira de Santana > Past weeks

Flag for Brazil Weather for the Past 2 Weeks in Feira de Santana, Bahia, Brazil

Now
81 °F

Passing clouds.


Feels Like: 85 °F
Forecast: 70 / 88 °F
Wind: 10 mph from East

Location: Salvador Aeroporto

Current Time: Apr 28, 2016 at 11:07:27 PM

Latest Report: Apr 28, 2016 at 10:00 PM


Visibility: N/A

Pressure: 29.95 "Hg

Humidity: 79%

Dew Point: 73 °F

Location of Feira de SantanaLocation

Historic Weather in Feira de Santana — Graph

°F

Feira de Santana Temperature Yesterday

Maximum temperature yesterday: 88 °F (at 11:00 AM)
Minimum temperature yesterday: 73 °F (at 4:00 AM)
Average temperature yesterday: 81 °F

High & Low Weather Summary for the Past Weeks

 TemperatureHumidityPressure
High88 °F (Apr 15, 1:00 PM)100% (Apr 17, 6:00 PM)30.07 "Hg (Apr 17, 6:00 PM)
Low43 °F (Apr 17, 6:00 PM)46% (Apr 19, 1:00 PM)29.86 "Hg (Apr 24, 4:00 PM)
Average82 °F69%29.96 "Hg
* Reported Apr 13 9:00 PM — Apr 28 9:00 PM, Feira de Santana, Weather by CustomWeather, © 2016

Note: Actual official high and low records may vary slightly from our data, if they occured in-between our weather recording intervals... More about our weather records

Advertising

Feira de Santana Weather History for the Previous 24 Hours

Scroll right to see more
 ConditionsComfort  
Time TempWeatherWind HumidityBarometerVisibility
9:00 PM
Thu, Apr 28
82 °FPassing clouds.10 mph74%29.95 "HgN/A
8:00 PM81 °FPassing clouds.9 mph79%29.92 "HgN/A
7:00 PM81 °FPassing clouds.9 mph79%29.92 "HgN/A
6:00 PM82 °FPassing clouds.8 mph74%29.92 "HgN/A
5:00 PM82 °FScattered clouds.12 mph74%29.89 "HgN/A
4:00 PM84 °FScattered clouds.12 mph70%29.89 "HgN/A
3:00 PM86 °FPassing clouds.14 mph62%29.89 "HgN/A
2:00 PM88 °FPassing clouds.13 mph62%29.89 "HgN/A
1:00 PM88 °FSunny.13 mph66%29.92 "Hg10 mi
12:00 PM88 °FSunny.14 mph62%29.92 "Hg10 mi
11:00 AM86 °FPassing clouds.14 mph66%29.95 "HgN/A
10:00 AM88 °FPassing clouds.13 mph62%29.98 "HgN/A
9:00 AM86 °FPassing clouds.17 mph66%29.98 "HgN/A
8:00 AM84 °FPassing clouds.13 mph70%29.95 "HgN/A
7:00 AM82 °FPassing clouds.12 mph74%29.92 "HgN/A
6:00 AM77 °FScattered clouds.6 mph83%29.92 "HgN/A
5:00 AM79 °FPassing clouds.2 mph79%29.92 "HgN/A
4:00 AM79 °FPassing clouds.6 mph84%29.89 "HgN/A
3:00 AM81 °FPassing clouds.9 mph79%29.89 "HgN/A
2:00 AM81 °FPassing clouds.10 mph74%29.89 "HgN/A
1:00 AM81 °FPassing clouds.13 mph79%29.92 "HgN/A
12:00 AM81 °FPassing clouds.12 mph79%29.92 "HgN/A
11:00 PM
Wed, Apr 27
81 °FPassing clouds.12 mph79%29.95 "HgN/A
Weather by CustomWeather, © 2016

See weather overviewHow to use our weather pages